Needles Airport Needles US
ICAO: KEED
IATA: EED
Category: Medium
Scheduled Services: No

Elevation: 983 ft
TransAlt. 18000 ft.

Airport Communications:
LOS ANGELES CNTR:134.65
ASOS:128.325
PRESCOTT RDO:115.2
CTAF/UNICOM:123

KEED Zoom In..

If you have problems with the map follow the link
https://www.worldairports.se/pages/airport.php?
ICAO=KEED

Runways:

(A) RW 02 length 4235 ft width 100 ft
---- / hdg 16

(B) RW 11 length 5005 ft width 100 ft
---- / hdg 106

(C) RW 20 length 4235 ft width 100 ft
---- / hdg 196

(D) RW 29 length 5005 ft width 100 ft
---- / hdg 286

Location; KEED
Day. 14 / Time. 10.56 Zulu
* Altimeter: 30.37
* Temperature: 11° c. 51.8°f.
* Wind from: 290° Speed 07 kn.
Dewpoint: -13° c.
Visibility: 10 Statute Miles.
Clouds: Clear (automated report).

KEED 141056Z AUTO 29007KT 10SM CLR 11/M13 A3037 RMK AO2 SLP271 T01111133 $


Wind From 290°
Speed 07 kn.

 
 
jpsmedia.com for Web Design worldairports.se 2018   terms of use